Regional Weather Roundup
Issued by NWS Cleveland, OH

Home | Current Version | Previous Version | Graphics & Text | Print | Product List | Glossary On
Versions: 1 2 3 4 5 6 7 8 9 10 11 12 13 14 15 16 17 18 19 20 21 22 23 24 25 26 27 28 29 30 31 32 33 34 35 36 37 38 39 40 41 42 43 44 45 46 47 48 49 50
000
ASUS41 KCLE 181810
RWRCLE
OHIO REGIONAL WEATHER ROUNDUP
NATIONAL WEATHER SERVICE CLEVELAND, OH
100 PM EST THU JAN 18 2018

NOTE: "FAIR" INDICATES FEW OR NO CLOUDS BELOW 12,000 FEET WITH NO
SIGNIFICANT WEATHER AND/OR OBSTRUCTIONS TO VISIBILITY.

OHZ001>008-015>018-024>027-034-035-043-044-181900-
   NORTHWEST OHIO

CITY           SKY/WX    TMP DP  RH WIND       PRES   REMARKS
DEFIANCE       FAIR      23  13  65 SW13G20   30.11F WCI  11
FINDLAY        FAIR      24  12  60 SW17      30.13F WCI  11
TOLEDO EXPRESS FAIR      24  15  68 SW12G22   30.10F WCI  13
TOLEDO EXEC    FAIR      23  14  68 SW21G28   30.12F WCI   8
LIMA           FAIR      22  13  68 MISG      30.15F
$$

OHZ009>014-019>023-028>033-038-089-181900-
   NORTHEAST OHIO

CITY           SKY/WX    TMP DP  RH WIND       PRES   REMARKS
CLE-HOPKINS    FAIR      24  11  57 SW17      30.15F WCI  11
CLE-LAKEFRONT  FAIR      24  10  55 SW20      30.12F WCI  10
CUY CO. ARPT   NOT AVBL
LORAIN-ELYRIA  FAIR      21   8  57 SW21G28   30.13F WCI   5
ASHTABULA      FAIR      22  10  60 SW14      30.10F WCI   9
AKRON-CANTON   FAIR      22   9  57 SW17      30.13F WCI   8
WOOSTER        FAIR      21  10  62 SW16      30.13F WCI   7
MANSFIELD      FAIR      22  11  62 S18       30.11F WCI   7
YOUNGSTOWN     FAIR      20   9  62 SW13G21   30.11F WCI   7
$$

OHZ042-051>053-060>062-070>072-077>081-181900-
  SOUTHWEST OHIO

CITY           SKY/WX    TMP DP  RH WIND       PRES   REMARKS
CINC-COVINGTON FAIR      25  14  63 SW15      30.28F WCI  13
CINC-LUNKEN    FAIR      25  12  58 SW13      30.32F WCI  14
HAMILTON       FAIR      29  13  51 SW10      30.28F WCI  20
DAYTON         FAIR      23  13  65 SW18      30.20F WCI   9
WRIGHT-PAT AFB FAIR      24   8  49 SW16      30.22F WCI  11
DAYTON GENERAL FAIR      24  11  57 SW16      30.22F WCI  11
WILMINGTON     FAIR      22  12  65 SW18      30.22F WCI   7
$$

OHZ036-037-039>041-045>050-054>059-063>069-073>076-082>088-181900-
  CENTRAL AND SOUTHEAST OHIO

CITY           SKY/WX    TMP DP  RH WIND       PRES   REMARKS
COLUMBUS       FAIR      22  10  60 SW18      30.24F WCI   7
OSU AIRPORT    FAIR      20  11  68 S16       30.22F WCI   6
BOLTON FIELD   SUNNY     19  10  68 SW17G25   30.25F WCI   4
RICKENBACK AFB HAZE      21  10  62 SW17      30.25F VSB 1/2 WCI   7
NEWARK         FAIR      21   9  59 SW16      30.22F WCI   7
MARION         FAIR      21  11  65 SW14      30.17F WCI   8
LANCASTER      FAIR      23   9  55 SW15      30.25F WCI  10
ZANESVILLE     FAIR      23   9  55 S14       30.23F WCI  11
NEW PHILLY     NOT AVBL
$$




USA.gov is the U.S. government's official web portal to all federal, state and local government web resources and services.